Location: Guadanolo
(41.9167°N, 12.9333°E)
Time: 02:34:00
(UTC+00:00)

Cosmos 1300 Rocket - Pass Details

Date: 16 September 2019
Orbit: 602 x 626 km, 82.5° (Epoch: 16 October)

Event Time Altitude Azimuth Distance (km) Brightness Sun altitude
Rises 17:38:57 0° 174° (S) 2,849 6.8 -4.9°
Reaches altitude 10° 17:41:12 10° 169° (SSE) 1,947 5.9 -5.3°
Maximum altitude 17:45:21 50° 94° (E) 769 3.7 -6.1°
Drops below altitude 10° 17:49:32 10° 19° (NNE) 1,956 6.0 -6.9°
Sets 17:51:48 0° 14° (NNE) 2,864 6.9 -7.3°
